GLWPR LFOB-LFRN

Flight info

Callsign GLWPR
Flight time N/A
Altitude 6500
Route ROU LGL
Aircraft BDOG/L-SDLO/C

Departure

Time 2026-04-22 20:30
Airport Beauvais-Tillé airport (LFOB)

Arrival

Time N/A
Airport Rennes-Saint-Jacques Airport (LFRN)
Time Latitude Longitude Altitude Speed Heading
2026-04-22 20:20 49.45863 2.10977 331 ft 0 kts 13°
2026-04-22 20:23 49.45866 2.10979 331 ft 1 kts 66°
2026-04-22 20:24 49.45842 2.10981 331 ft 7 kts 161°
2026-04-22 20:24 49.45802 2.10989 331 ft 7 kts 201°
2026-04-22 20:24 49.45764 2.10957 331 ft 5 kts 210°
2026-04-22 20:24 49.45756 2.10951 329 ft 2 kts 207°
2026-04-22 20:25 49.45722 2.10922 329 ft 14 kts 209°
2026-04-22 20:25 49.45607 2.10906 332 ft 7 kts 122°
2026-04-22 20:25 49.45606 2.10910 333 ft 0 kts 125°
2026-04-22 20:29 49.45602 2.10918 333 ft 10 kts 123°
2026-04-22 20:29 49.45451 2.11258 334 ft 66 kts 123°
2026-04-22 20:29 49.45148 2.11979 512 ft 86 kts 119°
2026-04-22 20:29 49.44835 2.12790 785 ft 93 kts 119°
2026-04-22 20:30 49.44476 2.13649 1055 ft 98 kts 123°
2026-04-22 20:30 49.44212 2.14567 1390 ft 90 kts 94°
2026-04-22 20:30 49.44594 2.15404 1346 ft 110 kts 39°
2026-04-22 20:30 49.45259 2.15852 1414 ft 102 kts 36°
2026-04-22 20:31 49.45945 2.15487 1353 ft 126 kts 314°
2026-04-22 20:31 49.46351 2.14315 1418 ft 122 kts 308°
2026-04-22 20:31 49.46279 2.13077 1345 ft 123 kts 228°
2026-04-22 20:31 49.45717 2.12166 1454 ft 115 kts 224°
2026-04-22 20:32 49.45179 2.11244 1545 ft 115 kts 229°
2026-04-22 20:32 49.44758 2.10194 1632 ft 115 kts 237°
2026-04-22 20:32 49.44438 2.09044 1724 ft 117 kts 249°
2026-04-22 20:32 49.44200 2.07859 1813 ft 116 kts 249°
2026-04-22 20:33 49.43975 2.06637 1857 ft 122 kts 250°
2026-04-22 20:33 49.43687 2.05371 1902 ft 129 kts 246°
2026-04-22 20:33 49.43328 2.04093 1917 ft 133 kts 242°
2026-04-22 20:33 49.42923 2.02768 1930 ft 140 kts 241°
2026-04-22 20:34 49.42517 2.01389 1934 ft 143 kts 241°
2026-04-22 20:34 49.42114 2.00004 1983 ft 138 kts 241°
2026-04-22 20:34 49.41770 1.98675 2106 ft 132 kts 250°
2026-04-22 20:34 49.41534 1.97327 2231 ft 129 kts 252°
2026-04-22 20:35 49.41366 1.96000 2335 ft 127 kts 273°
2026-04-22 20:35 49.41457 1.94668 2401 ft 124 kts 278°
2026-04-22 20:35 49.41518 1.93357 2512 ft 123 kts 276°
2026-04-22 20:35 49.41573 1.92059 2622 ft 120 kts 276°
2026-04-22 20:36 49.41628 1.90789 2712 ft 118 kts 276°
2026-04-22 20:36 49.41684 1.89535 2843 ft 117 kts 276°
2026-04-22 20:36 49.41744 1.88267 2976 ft 120 kts 276°
2026-04-22 20:36 49.41806 1.86998 3096 ft 119 kts 276°
2026-04-22 20:37 49.41867 1.85737 3242 ft 117 kts 276°
2026-04-22 20:37 49.41929 1.84486 3380 ft 118 kts 276°
2026-04-22 20:37 49.41994 1.83203 3464 ft 125 kts 276°
2026-04-22 20:37 49.42069 1.81861 3490 ft 130 kts 277°
2026-04-22 20:38 49.42153 1.80460 3492 ft 133 kts 277°
2026-04-22 20:38 49.42236 1.79036 3500 ft 134 kts 277°
2026-04-22 20:38 49.42323 1.77593 3557 ft 137 kts 277°
2026-04-22 20:38 49.42422 1.76118 3558 ft 140 kts 278°
2026-04-22 20:39 49.42549 1.74617 3535 ft 143 kts 280°
2026-04-22 20:39 49.42699 1.73131 3510 ft 142 kts 282°
2026-04-22 20:39 49.42859 1.71635 3494 ft 142 kts 282°
2026-04-22 20:39 49.43023 1.70129 3536 ft 143 kts 282°
2026-04-22 20:40 49.43178 1.68627 3536 ft 142 kts 281°
2026-04-22 20:40 49.43321 1.67134 3511 ft 141 kts 281°
2026-04-22 20:40 49.43461 1.65634 3505 ft 142 kts 280°
2026-04-22 20:40 49.43601 1.64122 3513 ft 145 kts 280°
2026-04-22 20:41 49.43747 1.62580 3480 ft 146 kts 281°
2026-04-22 20:41 49.43894 1.61054 3496 ft 143 kts 280°
2026-04-22 20:41 49.44038 1.59546 3502 ft 142 kts 281°
2026-04-22 20:41 49.44178 1.58067 3498 ft 141 kts 281°
2026-04-22 20:42 49.44316 1.56578 3491 ft 139 kts 280°
2026-04-22 20:42 49.44455 1.55118 3509 ft 138 kts 281°
2026-04-22 20:42 49.44596 1.53653 3514 ft 139 kts 281°
2026-04-22 20:42 49.44739 1.52168 3508 ft 140 kts 280°
2026-04-22 20:43 49.44882 1.50687 3495 ft 139 kts 280°
2026-04-22 20:43 49.45027 1.49219 3504 ft 138 kts 280°
2026-04-22 20:43 49.45173 1.47753 3509 ft 139 kts 281°
2026-04-22 20:43 49.45315 1.46301 3508 ft 140 kts 281°
2026-04-22 20:44 49.45457 1.44820 3515 ft 140 kts 281°
2026-04-22 20:44 49.45596 1.43336 3509 ft 140 kts 281°
2026-04-22 20:44 49.45737 1.41859 3510 ft 139 kts 281°
2026-04-22 20:44 49.45876 1.40387 3489 ft 139 kts 281°
2026-04-22 20:45 49.46016 1.38916 3468 ft 138 kts 281°
2026-04-22 20:45 49.46152 1.37446 3472 ft 139 kts 281°
2026-04-22 20:45 49.46290 1.35974 3477 ft 139 kts 281°
2026-04-22 20:45 49.46433 1.34490 3496 ft 141 kts 281°
2026-04-22 20:46 49.45815 1.31923 3503 ft 129 kts 222°
2026-04-22 20:46 49.45247 1.30854 3509 ft 129 kts 220°
2026-04-22 20:46 49.44670 1.29810 3510 ft 128 kts 220°
2026-04-22 20:47 49.44082 1.28775 3496 ft 128 kts 219°
2026-04-22 20:47 49.43495 1.27752 3500 ft 127 kts 219°
2026-04-22 20:47 49.42912 1.26735 3496 ft 127 kts 219°
2026-04-22 20:47 49.42324 1.25709 3514 ft 128 kts 219°
2026-04-22 20:48 49.41732 1.24677 3506 ft 129 kts 219°
2026-04-22 20:48 49.41144 1.23634 3498 ft 129 kts 219°
2026-04-22 20:48 49.40556 1.22599 3492 ft 127 kts 218°
2026-04-22 20:48 49.39954 1.21604 3505 ft 127 kts 216°
2026-04-22 20:49 49.39352 1.20643 3505 ft 127 kts 216°
2026-04-22 20:49 49.38735 1.19663 3507 ft 128 kts 216°
2026-04-22 20:49 49.38116 1.18692 3494 ft 126 kts 215°
2026-04-22 20:49 49.37503 1.17738 3494 ft 125 kts 215°
2026-04-22 20:50 49.36891 1.16788 3498 ft 125 kts 215°
2026-04-22 20:50 49.36274 1.15835 3497 ft 125 kts 215°
2026-04-22 20:50 49.35661 1.14892 3493 ft 124 kts 215°
2026-04-22 20:50 49.35054 1.13942 3488 ft 125 kts 214°
2026-04-22 20:51 49.34457 1.12992 3503 ft 126 kts 215°
2026-04-22 20:51 49.33852 1.12034 3436 ft 124 kts 216°
2026-04-22 20:51 49.33254 1.11087 3391 ft 124 kts 215°
2026-04-22 20:51 49.32651 1.10131 3411 ft 125 kts 215°
2026-04-22 20:52 49.32063 1.09195 3486 ft 122 kts 215°
2026-04-22 20:52 49.31475 1.08249 3496 ft 124 kts 215°
2026-04-22 20:52 49.30836 1.07394 3499 ft 121 kts 205°
2026-04-22 20:52 49.30156 1.06639 3498 ft 120 kts 202°
2026-04-22 20:53 49.29468 1.05908 3512 ft 120 kts 202°
2026-04-22 20:53 49.28771 1.05192 3505 ft 120 kts 201°
2026-04-22 20:53 49.28079 1.04492 3513 ft 122 kts 201°
2026-04-22 20:53 49.27363 1.03760 3511 ft 122 kts 201°
2026-04-22 20:54 49.26663 1.03043 3511 ft 123 kts 201°
2026-04-22 20:54 49.25955 1.02318 3519 ft 123 kts 201°
2026-04-22 20:54 49.25242 1.01586 3523 ft 123 kts 201°
2026-04-22 20:54 49.24529 1.00862 3500 ft 122 kts 201°
2026-04-22 20:55 49.23823 1.00153 3506 ft 121 kts 201°
2026-04-22 20:55 49.23117 0.99449 3504 ft 121 kts 201°
2026-04-22 20:55 49.22415 0.98740 3511 ft 121 kts 201°
2026-04-22 20:55 49.21703 0.98029 3513 ft 123 kts 201°
2026-04-22 20:56 49.20991 0.97302 3501 ft 123 kts 201°
2026-04-22 20:56 49.20281 0.96571 3487 ft 122 kts 201°
2026-04-22 20:56 49.19582 0.95851 3480 ft 120 kts 201°
2026-04-22 20:56 49.18891 0.95139 3469 ft 119 kts 201°
2026-04-22 20:57 49.18205 0.94466 3468 ft 116 kts 198°
2026-04-22 20:57 49.17515 0.93832 3479 ft 116 kts 197°
2026-04-22 20:57 49.16827 0.93225 3489 ft 116 kts 197°
2026-04-22 20:57 49.16121 0.92616 3486 ft 116 kts 196°
2026-04-22 20:58 49.15409 0.92005 3514 ft 119 kts 196°
2026-04-22 20:58 49.14684 0.91393 3493 ft 118 kts 196°
2026-04-22 20:58 49.13968 0.90788 3486 ft 117 kts 196°
2026-04-22 20:58 49.13264 0.90188 3477 ft 115 kts 196°
2026-04-22 20:59 49.12557 0.89583 3488 ft 117 kts 196°
2026-04-22 20:59 49.11845 0.88975 3489 ft 117 kts 196°
2026-04-22 20:59 49.11130 0.88370 3490 ft 117 kts 196°
2026-04-22 20:59 49.10418 0.87760 3494 ft 117 kts 196°
2026-04-22 21:00 49.09723 0.87151 3488 ft 116 kts 196°
2026-04-22 21:00 49.09031 0.86541 3490 ft 114 kts 196°
2026-04-22 21:00 49.08342 0.85932 3483 ft 114 kts 196°
2026-04-22 21:00 49.07656 0.85323 3502 ft 115 kts 196°
2026-04-22 21:01 49.06962 0.84687 3505 ft 117 kts 199°
2026-04-22 21:01 49.06275 0.84002 3494 ft 119 kts 200°
2026-04-22 21:01 49.05603 0.83254 3484 ft 120 kts 204°
2026-04-22 21:01 49.04945 0.82465 3488 ft 121 kts 206°
2026-04-22 21:02 49.04545 0.81247 3490 ft 141 kts 263°
2026-04-22 21:02 49.04875 0.79920 3491 ft 135 kts 321°
2026-04-22 21:02 49.05546 0.78929 3519 ft 134 kts 328°
2026-04-22 21:02 49.06246 0.77982 3515 ft 134 kts 330°
2026-04-22 21:03 49.06956 0.77049 3510 ft 135 kts 330°
2026-04-22 21:03 49.07668 0.76124 3525 ft 135 kts 331°
2026-04-22 21:03 49.08425 0.75326 3530 ft 126 kts 355°
2026-04-22 21:03 49.09270 0.74989 3532 ft 126 kts
2026-04-22 21:04 49.10116 0.74641 3517 ft 126 kts
2026-04-22 21:04 49.10956 0.74286 3510 ft 125 kts
2026-04-22 21:04 49.11792 0.73921 3500 ft 124 kts
2026-04-22 21:04 49.12617 0.73553 3496 ft 123 kts
2026-04-22 21:05 49.13434 0.73186 3499 ft 122 kts
2026-04-22 21:05 49.14252 0.72820 3504 ft 123 kts
2026-04-22 21:05 49.15081 0.72457 3507 ft 124 kts
2026-04-22 21:05 49.15899 0.72102 3502 ft 124 kts
2026-04-22 21:06 49.16726 0.71744 3497 ft 123 kts
2026-04-22 21:06 49.17540 0.71622 3533 ft 116 kts 17°
2026-04-22 21:06 49.18354 0.71641 3549 ft 118 kts 19°
2026-04-22 21:06 49.19177 0.71698 3535 ft 118 kts 20°
2026-04-22 21:07 49.19999 0.71767 3531 ft 118 kts 20°
2026-04-22 21:07 49.20815 0.71832 3523 ft 116 kts 21°
2026-04-22 21:07 49.21603 0.71883 3497 ft 113 kts 21°
2026-04-22 21:07 49.22375 0.71924 3500 ft 110 kts 20°
2026-04-22 21:08 49.23145 0.71972 3498 ft 111 kts 20°
2026-04-22 21:08 49.23907 0.72021 3433 ft 109 kts 21°
2026-04-22 21:08 49.24673 0.72067 3442 ft 112 kts 21°
2026-04-22 21:08 49.25454 0.72113 3430 ft 112 kts 20°
2026-04-22 21:09 49.26230 0.72162 3443 ft 112 kts 21°
2026-04-22 21:09 49.27007 0.72216 3440 ft 114 kts 21°
2026-04-22 21:09 49.27801 0.72276 3452 ft 114 kts 21°
2026-04-22 21:09 49.28602 0.72342 3460 ft 116 kts 21°
2026-04-22 21:10 49.29408 0.72406 3451 ft 116 kts 21°
2026-04-22 21:10 49.30211 0.72469 3448 ft 115 kts 21°
2026-04-22 21:10 49.31020 0.72537 3460 ft 117 kts 21°
2026-04-22 21:10 49.31837 0.72607 3457 ft 118 kts 21°
2026-04-22 21:11 49.32651 0.72671 3448 ft 117 kts 21°
2026-04-22 21:11 49.33460 0.72730 3445 ft 116 kts 21°
2026-04-22 21:11 49.34264 0.72789 3440 ft 115 kts 21°
2026-04-22 21:11 49.35064 0.72848 3435 ft 115 kts 21°
2026-04-22 21:12 49.35592 0.72884 3447 ft 115 kts 21°
2026-04-22 21:12 49.36670 0.72961 3458 ft 117 kts 21°
2026-04-22 21:12 49.37484 0.73022 3453 ft 117 kts 20°
2026-04-22 21:12 49.38018 0.73069 3441 ft 115 kts 20°
2026-04-22 21:13 49.39080 0.73165 3455 ft 116 kts 21°
2026-04-22 21:13 49.39886 0.73234 3436 ft 115 kts 21°
2026-04-22 21:13 49.40685 0.73306 3435 ft 115 kts 21°
2026-04-22 21:13 49.41478 0.73377 3429 ft 114 kts 21°
2026-04-22 21:14 49.42000 0.73422 3427 ft 113 kts 21°
2026-04-22 21:14 49.42787 0.73489 3437 ft 113 kts 21°
2026-04-22 21:14 49.43574 0.73543 3438 ft 113 kts 21°
2026-04-22 21:14 49.44364 0.73593 3450 ft 114 kts 21°
2026-04-22 21:15 49.45159 0.73645 3440 ft 114 kts 21°
2026-04-22 21:15 49.45944 0.73691 3436 ft 112 kts 21°
2026-04-22 21:15 49.46721 0.73734 3435 ft 111 kts 21°
2026-04-22 21:15 49.47501 0.73780 3458 ft 113 kts 21°
2026-04-22 21:16 49.48291 0.73837 3453 ft 114 kts 21°
2026-04-22 21:16 49.49083 0.73904 3447 ft 114 kts 21°
2026-04-22 21:16 49.49874 0.73971 3442 ft 114 kts 21°
2026-04-22 21:16 49.50674 0.74034 3462 ft 116 kts 21°
2026-04-22 21:17 49.51481 0.74099 3465 ft 117 kts 21°
2026-04-22 21:17 49.52269 0.74247 3447 ft 112 kts 28°
2026-04-22 21:17 49.53035 0.74481 3446 ft 112 kts 30°
2026-04-22 21:17 49.53787 0.74738 3458 ft 113 kts 31°
2026-04-22 21:18 49.54556 0.75015 3473 ft 114 kts 31°
2026-04-22 21:18 49.55333 0.75310 3486 ft 116 kts 31°
2026-04-22 21:18 49.56098 0.75605 3435 ft 110 kts 31°
2026-04-22 21:18 49.56836 0.75875 3423 ft 108 kts 31°
2026-04-22 21:19 49.57570 0.76144 3433 ft 109 kts 31°
2026-04-22 21:19 49.58306 0.76412 3426 ft 109 kts 31°
2026-04-22 21:19 49.59044 0.76676 3423 ft 108 kts 31°
2026-04-22 21:19 49.59782 0.76941 3439 ft 110 kts 31°
2026-04-22 21:20 49.60530 0.77223 3446 ft 111 kts 31°
2026-04-22 21:20 49.61273 0.77514 3451 ft 112 kts 31°
2026-04-22 21:20 49.62026 0.77810 3442 ft 111 kts 31°
2026-04-22 21:20 49.62773 0.78100 3438 ft 110 kts 31°
2026-04-22 21:21 49.63519 0.78387 3463 ft 111 kts 31°
2026-04-22 21:21 49.64270 0.78677 3453 ft 111 kts 31°
2026-04-22 21:21 49.65018 0.78957 3454 ft 111 kts 31°
2026-04-22 21:21 49.65770 0.79232 3464 ft 112 kts 31°
2026-04-22 21:22 49.66527 0.79514 3451 ft 112 kts 31°
2026-04-22 21:22 49.67279 0.79787 3459 ft 109 kts 31°
2026-04-22 21:22 49.68019 0.80050 3500 ft 109 kts 31°
2026-04-22 21:22 49.68760 0.80315 3495 ft 110 kts 31°
2026-04-22 21:23 49.69499 0.80585 3490 ft 110 kts 31°
2026-04-22 21:23 49.70244 0.80864 3492 ft 110 kts 31°
2026-04-22 21:23 49.70986 0.81145 3497 ft 110 kts 31°
2026-04-22 21:23 49.71725 0.81429 3494 ft 109 kts 31°
2026-04-22 21:24 49.72458 0.81714 3484 ft 108 kts 31°
2026-04-22 21:24 49.73190 0.81999 3501 ft 109 kts 31°
2026-04-22 21:24 49.73924 0.82285 3483 ft 108 kts 31°
2026-04-22 21:24 49.74653 0.82561 3476 ft 108 kts 31°
2026-04-22 21:25 49.75392 0.82840 3496 ft 111 kts 31°
2026-04-22 21:25 49.76139 0.83129 3499 ft 113 kts 31°
2026-04-22 21:25 49.76907 0.83432 3506 ft 114 kts 31°
2026-04-22 21:25 49.77677 0.83738 3493 ft 114 kts 31°
2026-04-22 21:26 49.78444 0.84047 3501 ft 114 kts 31°
2026-04-22 21:26 49.79211 0.84362 3503 ft 114 kts 31°
2026-04-22 21:26 49.79972 0.84682 3499 ft 113 kts 31°
2026-04-22 21:26 49.80731 0.84991 3496 ft 113 kts 31°
2026-04-22 21:27 49.81487 0.85286 3471 ft 111 kts 31°
2026-04-22 21:27 49.82227 0.85557 3469 ft 109 kts 31°
2026-04-22 21:27 49.82968 0.85825 3479 ft 109 kts 31°
2026-04-22 21:27 49.83710 0.86093 3481 ft 109 kts 31°
2026-04-22 21:28 49.84453 0.86372 3498 ft 111 kts 31°
2026-04-22 21:28 49.85208 0.86671 3502 ft 113 kts 31°
2026-04-22 21:28 49.85965 0.86980 3511 ft 115 kts 31°
2026-04-22 21:28 49.86727 0.87339 3511 ft 112 kts 37°
2026-04-22 21:29 49.87385 0.87893 3500 ft 106 kts 48°
2026-04-22 21:29 49.88003 0.88510 3510 ft 106 kts 50°
2026-04-22 21:29 49.88612 0.89146 3499 ft 105 kts 51°
2026-04-22 21:29 49.89207 0.89778 3493 ft 102 kts 51°
2026-04-22 21:30 49.89791 0.90396 3486 ft 101 kts 51°
2026-04-22 21:30 49.90365 0.91003 3465 ft 98 kts 51°
2026-04-22 21:30 49.90820 0.91697 3465 ft 87 kts 69°
2026-04-22 21:30 49.91111 0.92498 3463 ft 84 kts 76°
2026-04-22 21:31 49.91358 0.93319 3468 ft 84 kts 78°
2026-04-22 21:31 49.91590 0.94154 3475 ft 85 kts 79°
2026-04-22 21:31 49.91818 0.94992 3476 ft 84 kts 80°
2026-04-22 21:31 49.92044 0.95825 3476 ft 83 kts 80°
2026-04-22 21:32 49.92266 0.96644 3478 ft 83 kts 80°
2026-04-22 21:32 49.92490 0.97480 3481 ft 84 kts 80°
2026-04-22 21:32 49.92714 0.98321 3481 ft 84 kts 80°
2026-04-22 21:32 49.92936 0.99166 3484 ft 85 kts 80°
2026-04-22 21:33 49.93155 1.00016 3487 ft 85 kts 80°
2026-04-22 21:33 49.93376 1.00878 3487 ft 86 kts 80°
2026-04-22 21:33 49.93599 1.01743 3486 ft 86 kts 80°
2026-04-22 21:33 49.93823 1.02612 3485 ft 86 kts 80°
2026-04-22 21:34 49.94045 1.03481 3483 ft 87 kts 80°
2026-04-22 21:34 49.94269 1.04355 3487 ft 87 kts 80°
2026-04-22 21:34 49.94386 1.05256 3402 ft 88 kts 93°
2026-04-22 21:34 49.94442 1.06166 3377 ft 84 kts 102°
2026-04-22 21:35 49.94394 1.07136 3102 ft 92 kts 91°
2026-04-22 21:35 49.94038 1.07832 2703 ft 110 kts 174°
2026-04-22 21:35 49.93339 1.07239 2299 ft 118 kts 188°
2026-04-22 21:35 49.92750 1.06231 1849 ft 138 kts 225°
2026-04-22 21:36 49.92684 1.04829 1717 ft 124 kts 277°
2026-04-22 21:36 49.92693 1.03342 1443 ft 137 kts 267°
2026-04-22 21:36 49.92648 1.02110 1808 ft 113 kts 262°
2026-04-22 21:36 49.92559 1.00849 1855 ft 122 kts 261°
2026-04-22 21:37 49.92516 0.99500 1870 ft 127 kts 264°
2026-04-22 21:37 49.92453 0.98150 1986 ft 124 kts 263°
2026-04-22 21:37 49.92391 0.96819 2105 ft 123 kts 263°
2026-04-22 21:37 49.92311 0.95515 2227 ft 120 kts 259°
2026-04-22 21:38 49.92218 0.94236 2362 ft 118 kts 258°
2026-04-22 21:38 49.92123 0.92974 2483 ft 116 kts 257°
2026-04-22 21:38 49.91938 0.91773 2597 ft 112 kts 246°
2026-04-22 21:38 49.91717 0.90606 2659 ft 118 kts 244°
2026-04-22 21:39 49.91452 0.89354 2641 ft 125 kts 243°
2026-04-22 21:39 49.91206 0.88098 2758 ft 119 kts 248°
2026-04-22 21:39 49.91080 0.86836 2875 ft 117 kts 258°
2026-04-22 21:39 49.91025 0.85588 2991 ft 115 kts 262°
2026-04-22 21:40 49.90990 0.84367 3114 ft 112 kts 262°
2026-04-22 21:40 49.90971 0.83175 3246 ft 110 kts 262°
2026-04-22 21:40 49.90958 0.82002 3377 ft 108 kts 263°
2026-04-22 21:40 49.90943 0.80847 3504 ft 106 kts 263°
2026-04-22 21:41 49.90925 0.79688 3561 ft 113 kts 263°
2026-04-22 21:41 49.90842 0.78432 3569 ft 120 kts 255°
2026-04-22 21:41 49.90665 0.77139 3576 ft 124 kts 249°
2026-04-22 21:41 49.90448 0.75824 3585 ft 128 kts 248°
2026-04-22 21:42 49.90214 0.74478 3600 ft 131 kts 247°
2026-04-22 21:42 49.89966 0.73108 3595 ft 133 kts 247°
2026-04-22 21:42 49.89706 0.71711 3562 ft 136 kts 247°
2026-04-22 21:42 49.89441 0.70318 3549 ft 136 kts 247°
2026-04-22 21:43 49.89172 0.68923 3541 ft 135 kts 247°
2026-04-22 21:43 49.88904 0.67538 3537 ft 134 kts 246°
2026-04-22 21:43 49.88639 0.66152 3541 ft 134 kts 246°
2026-04-22 21:43 49.88373 0.64759 3544 ft 135 kts 246°
2026-04-22 21:44 49.88106 0.63355 3548 ft 136 kts 246°
2026-04-22 21:44 49.87839 0.61949 3547 ft 136 kts 246°
2026-04-22 21:44 49.87574 0.60553 3545 ft 137 kts 247°
2026-04-22 21:44 49.87298 0.59138 3537 ft 137 kts 247°
2026-04-22 21:45 49.87016 0.57737 3530 ft 136 kts 246°
2026-04-22 21:45 49.86735 0.56340 3527 ft 135 kts 246°
2026-04-22 21:45 49.86455 0.54951 3523 ft 135 kts 246°
2026-04-22 21:45 49.86178 0.53565 3518 ft 134 kts 246°
2026-04-22 21:46 49.85908 0.52178 3520 ft 135 kts 246°
2026-04-22 21:46 49.85640 0.50784 3520 ft 135 kts 246°
2026-04-22 21:46 49.85367 0.49380 3522 ft 136 kts 246°
2026-04-22 21:46 49.85096 0.47975 3523 ft 136 kts 246°
2026-04-22 21:47 49.84701 0.46692 3518 ft 129 kts 227°
2026-04-22 21:47 49.84190 0.45572 3524 ft 126 kts 223°
2026-04-22 21:47 49.83663 0.44494 3520 ft 125 kts 221°
2026-04-22 21:47 49.83145 0.43442 3517 ft 124 kts 221°
2026-04-22 21:48 49.82619 0.42390 3520 ft 123 kts 221°
2026-04-22 21:48 49.82084 0.41343 3520 ft 123 kts 221°
2026-04-22 21:48 49.81552 0.40301 3523 ft 123 kts 221°
2026-04-22 21:48 49.81016 0.39258 3517 ft 124 kts 221°
2026-04-22 21:49 49.80489 0.38228 3514 ft 123 kts 220°
2026-04-22 21:49 49.79956 0.37168 3513 ft 123 kts 221°
2026-04-22 21:49 49.79436 0.36132 3513 ft 124 kts 221°
2026-04-22 21:49 49.78909 0.35079 3508 ft 124 kts 221°
2026-04-22 21:50 49.78380 0.34024 3505 ft 124 kts 221°
2026-04-22 21:50 49.77846 0.32974 3502 ft 124 kts 221°
2026-04-22 21:50 49.77312 0.31935 3498 ft 123 kts 221°
2026-04-22 21:50 49.76778 0.30897 3496 ft 123 kts 221°
2026-04-22 21:51 49.76246 0.29865 3499 ft 122 kts 221°
2026-04-22 21:51 49.75716 0.28834 3500 ft 123 kts 220°
2026-04-22 21:51 49.75192 0.27806 3500 ft 124 kts 220°
2026-04-22 21:52 49.74120 0.25713 3509 ft 125 kts 221°
2026-04-22 21:52 49.73581 0.24663 3513 ft 124 kts 221°
2026-04-22 21:52 49.73040 0.23621 3519 ft 125 kts 221°
2026-04-22 21:52 49.72491 0.22575 3516 ft 125 kts 220°
2026-04-22 21:53 49.71946 0.21517 3515 ft 126 kts 220°
2026-04-22 21:53 49.71397 0.20451 3516 ft 127 kts 221°
2026-04-22 21:53 49.70845 0.19387 3507 ft 127 kts 220°
2026-04-22 21:53 49.70302 0.18325 3504 ft 125 kts 221°
2026-04-22 21:54 49.69759 0.17274 3507 ft 125 kts 220°
2026-04-22 21:54 49.69175 0.16313 3501 ft 122 kts 213°
2026-04-22 21:54 49.68580 0.15415 3503 ft 121 kts 212°
2026-04-22 21:54 49.67967 0.14518 3508 ft 121 kts 211°
2026-04-22 21:55 49.67352 0.13635 3502 ft 121 kts 211°
2026-04-22 21:55 49.66734 0.12760 3501 ft 120 kts 211°
2026-04-22 21:55 49.66116 0.11888 3499 ft 120 kts 211°
2026-04-22 21:55 49.65500 0.11016 3498 ft 120 kts 211°
2026-04-22 21:56 49.64887 0.10149 3501 ft 120 kts 211°
2026-04-22 21:56 49.64231 0.09428 3496 ft 113 kts 196°
2026-04-22 21:56 49.63542 0.08860 3502 ft 112 kts 193°
2026-04-22 21:56 49.62845 0.08337 3505 ft 111 kts 192°
2026-04-22 21:57 49.62143 0.07826 3504 ft 112 kts 191°
2026-04-22 21:57 49.61441 0.07316 3500 ft 111 kts 191°
2026-04-22 21:57 49.60742 0.06816 3497 ft 110 kts 192°
2026-04-22 21:57 49.60052 0.06329 3495 ft 110 kts 191°
2026-04-22 21:58 49.59357 0.05831 3497 ft 110 kts 191°
2026-04-22 21:58 49.58661 0.05332 3500 ft 110 kts 192°
2026-04-22 21:58 49.57964 0.04842 3508 ft 110 kts 191°
2026-04-22 21:58 49.57261 0.04348 3508 ft 111 kts 191°
2026-04-22 21:59 49.56554 0.03845 3505 ft 112 kts 191°
2026-04-22 21:59 49.55844 0.03380 3490 ft 106 kts 181°
2026-04-22 21:59 49.55185 0.03545 3480 ft 93 kts 154°
2026-04-22 21:59 49.54577 0.03834 3508 ft 90 kts 152°
2026-04-22 22:00 49.54001 0.04178 3526 ft 87 kts 145°
2026-04-22 22:00 49.53464 0.04602 3530 ft 87 kts 144°
2026-04-22 22:00 49.52926 0.05018 3531 ft 88 kts 145°
2026-04-22 22:00 49.52376 0.05436 3552 ft 88 kts 145°
2026-04-22 22:01 49.51827 0.05855 3556 ft 88 kts 145°
2026-04-22 22:01 49.51278 0.06273 3554 ft 88 kts 145°
2026-04-22 22:01 49.50728 0.06691 3552 ft 88 kts 145°
2026-04-22 22:01 49.50181 0.07107 3553 ft 88 kts 145°
2026-04-22 22:02 49.49631 0.07522 3555 ft 88 kts 145°
2026-04-22 22:02 49.49079 0.07937 3554 ft 88 kts 145°
2026-04-22 22:02 49.48713 0.08211 3555 ft 88 kts 145°
2026-04-22 22:02 49.48162 0.08625 3555 ft 88 kts 145°
2026-04-22 22:03 49.47611 0.09038 3554 ft 88 kts 146°
2026-04-22 22:03 49.46882 0.09583 3554 ft 88 kts 146°
2026-04-22 22:03 49.46331 0.09994 3554 ft 88 kts 146°
2026-04-22 22:03 49.45956 0.10273 3554 ft 88 kts 146°
2026-04-22 22:04 49.45401 0.10684 3557 ft 89 kts 146°
2026-04-22 22:04 49.44841 0.11097 3557 ft 89 kts 146°
2026-04-22 22:04 49.44287 0.11504 3559 ft 90 kts 146°
2026-04-22 22:04 49.43722 0.11919 3557 ft 90 kts 146°
2026-04-22 22:05 49.43160 0.12330 3550 ft 89 kts 146°
2026-04-22 22:05 49.42603 0.12735 3545 ft 88 kts 146°
2026-04-22 22:05 49.42050 0.13135 3542 ft 87 kts 146°
2026-04-22 22:05 49.41414 0.13113 3534 ft 109 kts 193°
2026-04-22 22:06 49.40877 0.12187 3533 ft 126 kts 232°
2026-04-22 22:06 49.40460 0.11011 3539 ft 126 kts 231°
2026-04-22 22:06 49.40041 0.09827 3541 ft 126 kts 231°
2026-04-22 22:06 49.39622 0.08641 3545 ft 127 kts 231°
2026-04-22 22:07 49.39198 0.07452 3553 ft 128 kts 231°
2026-04-22 22:07 49.38761 0.06260 3557 ft 129 kts 231°
2026-04-22 22:07 49.38325 0.05079 3559 ft 129 kts 231°
2026-04-22 22:07 49.37882 0.03877 3558 ft 129 kts 231°
2026-04-22 22:08 49.37437 0.02675 3558 ft 129 kts 231°
2026-04-22 22:08 49.36998 0.01477 3552 ft 128 kts 231°
2026-04-22 22:08 49.36564 0.00285 3552 ft 128 kts 231°
2026-04-22 22:08 49.36131 -0.00903 3553 ft 127 kts 231°
2026-04-22 22:09 49.35702 -0.02087 3552 ft 127 kts 231°
2026-04-22 22:09 49.35273 -0.03268 3551 ft 127 kts 231°
2026-04-22 22:09 49.34840 -0.04447 3547 ft 126 kts 231°
2026-04-22 22:09 49.34414 -0.05620 3545 ft 126 kts 231°
2026-04-22 22:10 49.33992 -0.06792 3546 ft 126 kts 231°
2026-04-22 22:10 49.33570 -0.07966 3548 ft 126 kts 231°
2026-04-22 22:10 49.33147 -0.09142 3550 ft 126 kts 231°
2026-04-22 22:10 49.32720 -0.10318 3548 ft 126 kts 231°
2026-04-22 22:11 49.32290 -0.11495 3549 ft 126 kts 231°
2026-04-22 22:11 49.31865 -0.12654 3551 ft 126 kts 231°
2026-04-22 22:11 49.31433 -0.13822 3552 ft 126 kts 231°
2026-04-22 22:11 49.31001 -0.14986 3552 ft 126 kts 231°
2026-04-22 22:12 49.30566 -0.16148 3549 ft 126 kts 231°
2026-04-22 22:12 49.30127 -0.17311 3559 ft 126 kts 231°
2026-04-22 22:12 49.29684 -0.18484 3559 ft 128 kts 231°
2026-04-22 22:12 49.29238 -0.19665 3562 ft 128 kts 231°
2026-04-22 22:13 49.28791 -0.20859 3565 ft 129 kts 230°
2026-04-22 22:13 49.28345 -0.22058 3567 ft 130 kts 231°
2026-04-22 22:13 49.27892 -0.23253 3569 ft 129 kts 231°
2026-04-22 22:13 49.27445 -0.24443 3568 ft 129 kts 231°
2026-04-22 22:14 49.26996 -0.25627 3560 ft 129 kts 231°
2026-04-22 22:14 49.26544 -0.26816 3569 ft 130 kts 230°
2026-04-22 22:14 49.26097 -0.27999 3569 ft 130 kts 231°
2026-04-22 22:14 49.25641 -0.29197 3568 ft 130 kts 231°
2026-04-22 22:15 49.25187 -0.30399 3572 ft 130 kts 231°
2026-04-22 22:15 49.24735 -0.31604 3567 ft 130 kts 231°
2026-04-22 22:15 49.24284 -0.32800 3556 ft 130 kts 230°
2026-04-22 22:15 49.23836 -0.33998 3557 ft 129 kts 231°
2026-04-22 22:16 49.23386 -0.35189 3559 ft 129 kts 231°
2026-04-22 22:16 49.22950 -0.36366 3503 ft 122 kts 231°
2026-04-22 22:16 49.22587 -0.37541 3280 ft 121 kts 237°
2026-04-22 22:16 49.22336 -0.38742 3125 ft 116 kts 240°
2026-04-22 22:17 49.21970 -0.39752 2933 ft 105 kts 213°
2026-04-22 22:17 49.21430 -0.40489 2736 ft 103 kts 206°
2026-04-22 22:17 49.20901 -0.41183 2556 ft 96 kts 199°
2026-04-22 22:17 49.20327 -0.41648 2294 ft 102 kts 201°
2026-04-22 22:18 49.19813 -0.42455 2078 ft 112 kts 218°
2026-04-22 22:18 49.19675 -0.43696 1885 ft 127 kts 278°
2026-04-22 22:18 49.19863 -0.44988 1697 ft 124 kts 284°
2026-04-22 22:18 49.20092 -0.46174 1629 ft 108 kts 294°
2026-04-22 22:19 49.20404 -0.47219 1449 ft 107 kts 298°
2026-04-22 22:19 49.20582 -0.48326 1188 ft 108 kts 264°
2026-04-22 22:19 49.20096 -0.48909 858 ft 96 kts 160°
2026-04-22 22:19 49.19791 -0.48159 700 ft 82 kts 114°
2026-04-22 22:20 49.19333 -0.47642 655 ft 90 kts 159°
2026-04-22 22:20 49.18725 -0.47287 629 ft 99 kts 149°
2026-04-22 22:20 49.18151 -0.46671 597 ft 104 kts 131°
2026-04-22 22:20 49.17712 -0.45837 593 ft 94 kts 125°
2026-04-22 22:21 49.17379 -0.45012 590 ft 90 kts 122°
2026-04-22 22:21 49.17071 -0.44190 687 ft 79 kts 127°
2026-04-22 22:21 49.16591 -0.43904 922 ft 84 kts 186°
2026-04-22 22:21 49.16238 -0.44677 1183 ft 104 kts 248°
2026-04-22 22:22 49.16183 -0.45846 1328 ft 128 kts 290°
2026-04-22 22:22 49.16564 -0.47145 1344 ft 134 kts 304°
2026-04-22 22:22 49.17015 -0.48283 1230 ft 121 kts 308°
2026-04-22 22:22 49.17466 -0.49316 1067 ft 106 kts 326°
2026-04-22 22:23 49.18033 -0.49383 914 ft 77 kts 33°
2026-04-22 22:23 49.18533 -0.49017 685 ft 81 kts 32°
2026-04-22 22:23 49.18661 -0.48372 444 ft 66 kts 103°
2026-04-22 22:23 49.18508 -0.47734 399 ft 62 kts 107°
2026-04-22 22:24 49.18300 -0.47142 324 ft 67 kts 117°
2026-04-22 22:24 49.18048 -0.46549 282 ft 65 kts 120°
2026-04-22 22:24 49.17808 -0.46025 247 ft 54 kts 120°
2026-04-22 22:24 49.17633 -0.45646 247 ft 34 kts 124°
2026-04-22 22:25 49.17530 -0.45410 248 ft 21 kts 134°
2026-04-22 22:25 49.17445 -0.45278 248 ft 15 kts 146°
2026-04-22 22:25 49.17422 -0.45231 247 ft 0 kts 309°
2026-04-22 22:25 49.17454 -0.45268 248 ft 16 kts 325°
2026-04-22 22:26 49.17554 -0.45445 248 ft 24 kts 302°
2026-04-22 22:26 49.17680 -0.45738 245 ft 49 kts 304°
2026-04-22 22:26 49.17883 -0.46189 243 ft 30 kts 304°
2026-04-22 22:26 49.17959 -0.46261 243 ft 10 kts 25°
2026-04-22 22:27 49.18090 -0.46134 243 ft 31 kts 36°
2026-04-22 22:27 49.18179 -0.46017 243 ft 3 kts 129°
2026-04-22 22:27 49.18121 -0.45955 243 ft 17 kts 131°
2026-04-22 22:27 49.18104 -0.45902 243 ft 2 kts 62°
2026-04-22 22:28 49.18108 -0.45881 243 ft 0 kts 78°